Simultaneous Nadir Overpasses (SNOs) Predictions

Prediction of SNOs between FY3D and AQUA Satellite Orbit:

Table of predicted SNOs for the next 14.0 days since TLE Epoch: 6/3/2023
Index Date (FY3D) Time (FY3D) Lat,Lon (FY3D) SZA (FY3D ) Date (AQUA) Time (AQUA) Lat,Lon (AQUA) SZA (AQUA ) Distance(km) Time Diff (sec)
1 06/04/2023 00:53:43 78.57, 147.93 56.76 06/04/2023 00:54:29 78.58, 147.83 56.76 2.45 46
2 06/04/2023 01:44:18 -78.16, -42.32 123.80 06/04/2023 01:43:43 -78.16, -42.38 123.78 1.51 35
3 06/06/2023 14:39:24 -78.63, 121.18 123.44 06/06/2023 14:40:11 -78.63, 121.17 123.46 0.36 47
4 06/06/2023 15:29:57 78.15, -68.64 55.91 06/06/2023 15:29:25 78.16, -68.74 55.93 2.38 32
5 06/09/2023 04:25:04 78.66, 94.58 56.37 06/09/2023 04:25:53 78.66, 94.62 56.35 0.90 49
6 06/09/2023 05:15:40 -78.29, -95.83 124.14 06/09/2023 05:15:08 -78.28, -95.76 124.14 1.89 32
7 06/11/2023 18:10:44 -78.69, 68.03 123.78 06/11/2023 18:11:33 -78.69, 68.08 123.81 1.21 49
8 06/11/2023 19:01:17 78.22,-121.77 55.58 06/11/2023 19:00:47 78.22,-121.83 55.59 1.38 30
9 06/14/2023 07:56:22 78.66, 41.85 56.04 06/14/2023 07:57:12 78.66, 41.83 56.02 0.29 50
10 06/14/2023 08:46:58 -78.33,-148.79 124.42 06/14/2023 08:46:27 -78.32,-148.73 124.42 1.30 31
11 06/16/2023 21:42:00 -78.66, 15.48 124.07 06/16/2023 21:42:49 -78.67, 15.43 124.07 1.27 49



Historial Predications of SNOs between FY3D and AQUA
